Regional Weather Roundup
Issued by NWS

Home | Current Version | Previous Version | Text Only | Print | Product List | Glossary On
Versions: 1 2 3 4 5 6 7 8 9 10 11 12 13 14 15 16 17 18 19 20 21 22 23 24 25 26 27 28 29 30 31 32 33 34 35 36 37 38 39 40 41 42 43 44 45 46 47 48 49 50
000
ASUS43 KLSX 232007
RWRMO

WEATHER SUMMARY FOR MISSOURI
NATIONAL WEATHER SERVICE SPRINGFIELD MO
200 PM CST THU FEB 23 2017

NOTE: "FAIR" INDICATES FEW OR NO CLOUDS BELOW 12,000 FEET WITH NO
       SIGNIFICANT WEATHER AND/OR OBSTRUCTIONS TO VISIBILITY.
       CURRENT SKY AND/OR WEATHER CONDITIONS ARE NOT AVAILABLE FOR
       CHILLICOTHE AND FARMINGTON.

MOZ001>031-035>038-043-044-053-054-232100-
...NORTHERN AND WESTERN MISSOURI...

CITY           SKY/WX    TMP DP  RH WIND       PRES   REMARKS
KANSAS CTY INT PTSUNNY   50  43  77 E17       29.49F
KANSAS C DTWN  CLOUDY    53  43  68 E12       29.49F
LEE`S SUMMIT   PTSUNNY   54  45  71 E15       29.50F
ST JOSEPH      CLOUDY    54  44  69 E10       29.51S
CHILLICOTHE      N/A     49  42  77 E13G26    29.55F
KIRKSVILLE     CLOUDY    47  43  86 E15G22    29.59F

$$
MOZ066>068-077>081-088>096-101>105-232100-
...SOUTHWEST MISSOURI...

CITY           SKY/WX    TMP DP  RH WIND       PRES   REMARKS
SPRINGFIELD    SUNNY     78  53  41 S23G32    29.46F
JOPLIN         MOSUNNY   81  48  31 S18       29.43F
BRANSON        MOSUNNY   79  48  34 S15       29.53F

$$
MOZ032>034-039>042-045>050-055>058-069>072-232100-
...CENTRAL MISSOURI...

CITY           SKY/WX    TMP DP  RH WIND       PRES   REMARKS
COLUMBIA       MOSUNNY   64  55  72 E15       29.55F
JEFFERSON CITY PTSUNNY   64  55  72 E8        29.54F
ROLLA          SUNNY     70  54  56 SE15G23   29.55F
SEDALIA        MOSUNNY   67  53  61 E15       29.50F
WHITEMAN AFB   PTSUNNY   63  56  77 E12G17    29.47F
WARRENSBURG    CLOUDY    61  50  67 E15G22    29.50F
OSAGE BEACH    SUNNY     75  51  43 SE14G24   29.51F

$$
MOZ051-052-059>065-232100-
...EAST CENTRAL MISSOURI...

CITY           SKY/WX    TMP DP  RH WIND       PRES   REMARKS
ST LOUIS INTL  CLOUDY    70  55  59 SE14      29.62F
SPIRIT OF STL  PTSUNNY   71  55  56 E8        29.60F
ST CHARLES     CLOUDY    66  58  75 N12       29.61F

$$
MOZ072>076-082>087-097>100-106>115-232100-
...SOUTH CENTRAL AND SOUTHEAST MISSOURI...

CITY           SKY/WX    TMP DP  RH WIND       PRES   REMARKS
CAPE GIRARDEAU PTSUNNY   70  56  61 S18       29.67F
FARMINGTON     CLOUDY    62  56  80 S8        29.66S
POPLAR BLUFF   MOSUNNY   69  58  67 S16G22    29.66F
WEST PLAINS    SUNNY     74  52  46 S20G26    29.59F

$$



USA.gov is the U.S. government's official web portal to all federal, state and local government web resources and services.